| time (UTC) | temp F | wind direction | speed MPH | gust MPH | rain 1hr in | rain 24hr in | rain mn in | humidity % | barometer mb |
| 20260508024003 | 46 | 93 | 5.0 | 9.0 | 0.00 | 0.18 | 0.00 | 86 | 1009.0 |
| 20260508023003 | 46 | 108 | 4.0 | 9.0 | 0.00 | 0.18 | 0.00 | 86 | 1009.0 |
| 20260508022003 | 46 | 108 | 5.0 | 9.0 | 0.00 | 0.18 | 0.00 | 86 | 1009.0 |
| 20260508021003 | 46 | 108 | 5.0 | 9.0 | 0.00 | 0.18 | 0.00 | 86 | 1009.1 |
| 20260508020003 | 46 | 109 | 5.0 | 9.0 | 0.00 | 0.18 | 0.00 | 86 | 1009.5 |
| 20260508015003 | 46 | 108 | 6.0 | 10.0 | 0.00 | 0.18 | 0.00 | 86 | 1009.3 |
| 20260508014003 | 46 | 106 | 6.0 | 9.0 | 0.00 | 0.18 | 0.00 | 86 | 1009.4 |
| 20260508013003 | 46 | 102 | 6.0 | 10.0 | 0.00 | 0.18 | 0.00 | 86 | 1009.3 |
| 20260508012003 | 46 | 105 | 6.0 | 9.0 | 0.00 | 0.18 | 0.00 | 86 | 1009.7 |
| 20260508011003 | 46 | 94 | 6.0 | 9.0 | 0.00 | 0.18 | 0.00 | 85 | 1009.8 |
| 20260508010003 | 46 | 101 | 7.0 | 9.0 | 0.00 | 0.18 | 0.00 | 85 | 1010.1 |
| 20260508005003 | 46 | 103 | 7.0 | 10.0 | 0.00 | 0.18 | 0.00 | 85 | 1010.2 |
| 20260508004003 | 46 | 107 | 7.0 | 10.0 | 0.00 | 0.18 | 0.00 | 85 | 1010.2 |
| 20260508003003 | 46 | 107 | 5.0 | 8.0 | 0.00 | 0.18 | 0.00 | 85 | 1010.4 |
| 20260508002003 | 47 | 99 | 5.0 | 8.0 | 0.00 | 0.18 | 0.00 | 84 | 1010.6 |
| 20260508001003 | 47 | 94 | 5.0 | 9.0 | 0.00 | 0.18 | 0.00 | 84 | 1010.5 |
| 20260508000003 | 47 | 105 | 6.0 | 10.0 | 0.00 | 0.18 | 0.00 | 84 | 1010.6 |
| 20260507235003 | 47 | 108 | 6.0 | 10.0 | 0.00 | 0.18 | 0.00 | 84 | 1010.7 |
| 20260507234003 | 47 | 107 | 6.0 | 9.0 | 0.00 | 0.18 | 0.00 | 85 | 1010.7 |
| 20260507233003 | 46 | 100 | 6.0 | 10.0 | 0.00 | 0.18 | 0.00 | 85 | 1010.9 |
| 20260507232003 | 46 | 100 | 6.0 | 9.0 | 0.00 | 0.18 | 0.00 | 85 | 1010.8 |
| 20260507231003 | 47 | 101 | 7.0 | 10.0 | 0.00 | 0.18 | 0.00 | 85 | 1010.9 |
| 20260507230003 | 47 | 110 | 6.0 | 10.0 | 0.00 | 0.18 | 0.00 | 84 | 1010.9 |
| 20260507225003 | 47 | 113 | 6.0 | 9.0 | 0.00 | 0.18 | 0.00 | 86 | 1011.3 |
| 20260507224003 | 47 | 101 | 7.0 | 11.0 | 0.00 | 0.18 | 0.00 | 86 | 1011.3 |
| 20260507223003 | 47 | 116 | 6.0 | 9.0 | 0.00 | 0.18 | 0.00 | 87 | 1011.0 |
| 20260507222003 | 47 | 120 | 7.0 | 10.0 | 0.00 | 0.18 | 0.00 | 86 | 1011.2 |
| 20260507221003 | 48 | 122 | 7.0 | 10.0 | 0.00 | 0.18 | 0.00 | 85 | 1011.0 |
| 20260507220003 | 48 | 134 | 7.0 | 11.0 | 0.00 | 0.18 | 0.00 | 84 | 1011.2 |
| 20260507215003 | 49 | 142 | 7.0 | 13.0 | 0.00 | 0.18 | 0.18 | 83 | 1011.0 |
| 20260507214003 | 49 | 125 | 8.0 | 13.0 | 0.00 | 0.18 | 0.18 | 83 | 1010.9 |
| 20260507213003 | 49 | 119 | 7.0 | 13.0 | 0.00 | 0.18 | 0.18 | 84 | 1010.7 |
| 20260507212003 | 49 | 126 | 8.0 | 13.0 | 0.00 | 0.18 | 0.18 | 84 | 1010.7 |
| 20260507211003 | 49 | 132 | 7.0 | 14.0 | 0.00 | 0.18 | 0.18 | 83 | 1010.6 |
| 20260507210003 | 50 | 125 | 7.0 | 13.0 | 0.00 | 0.18 | 0.18 | 83 | 1010.7 |
| 20260507205003 | 49 | 129 | 6.0 | 11.0 | 0.00 | 0.18 | 0.18 | 83 | 1010.3 |
| 20260507204003 | 49 | 124 | 8.0 | 14.0 | 0.00 | 0.18 | 0.18 | 83 | 1010.2 |
| 20260507203003 | 50 | 132 | 8.0 | 14.0 | 0.00 | 0.18 | 0.18 | 83 | 1010.1 |
| 20260507202003 | 50 | 126 | 8.0 | 15.0 | 0.00 | 0.18 | 0.18 | 84 | 1010.1 |
| 20260507201003 | 50 | 121 | 8.0 | 16.0 | 0.00 | 0.18 | 0.18 | 84 | 1010.0 |
| 20260507200003 | 50 | 131 | 9.0 | 16.0 | 0.00 | 0.18 | 0.18 | 84 | 1009.6 |
| 20260507195003 | 51 | 124 | 10.0 | 16.0 | 0.00 | 0.18 | 0.18 | 83 | 1009.6 |
| 20260507194003 | 51 | 120 | 10.0 | 16.0 | 0.00 | 0.18 | 0.18 | 81 | 1009.4 |
| 20260507193003 | 51 | 117 | 9.0 | 14.0 | 0.00 | 0.18 | 0.18 | 77 | 1009.6 |
| 20260507192003 | 51 | 120 | 5.0 | 11.0 | 0.00 | 0.18 | 0.18 | 78 | 1009.6 |
| 20260507191003 | 51 | 107 | 4.0 | 9.0 | 0.00 | 0.18 | 0.18 | 77 | 1009.1 |
| 20260507190004 | 52 | 114 | 5.0 | 9.0 | 0.00 | 0.18 | 0.18 | 76 | 1009.2 |
| 20260507185003 | 53 | 110 | 4.0 | 7.0 | 0.00 | 0.18 | 0.18 | 75 | 1009.1 |
| 20260507184003 | 54 | 105 | 3.0 | 6.0 | 0.00 | 0.18 | 0.18 | 74 | 1008.8 |
| 20260507183003 | 54 | 98 | 3.0 | 6.0 | 0.00 | 0.18 | 0.18 | 73 | 1008.8 |
| 20260507182003 | 54 | 90 | 3.0 | 6.0 | 0.00 | 0.18 | 0.18 | 70 | 1008.8 |
| 20260507181003 | 54 | 93 | 4.0 | 7.0 | 0.00 | 0.18 | 0.18 | 71 | 1008.6 |
| 20260507180003 | 54 | 93 | 5.0 | 9.0 | 0.02 | 0.18 | 0.18 | 68 | 1009.0 |
| 20260507175003 | 54 | 85 | 5.0 | 9.0 | 0.06 | 0.18 | 0.18 | 68 | 1008.8 |
| 20260507174003 | 54 | 62 | 4.0 | 8.0 | 0.09 | 0.18 | 0.18 | 64 | 1008.5 |
| 20260507173003 | 53 | 59 | 4.0 | 10.0 | 0.11 | 0.18 | 0.18 | 64 | 1008.5 |
| 20260507172003 | 52 | 46 | 8.0 | 14.0 | 0.11 | 0.18 | 0.18 | 70 | 1008.6 |
| 20260507171003 | 53 | 65 | 7.0 | 21.0 | 0.11 | 0.18 | 0.18 | 63 | 1008.4 |
| 20260507170003 | 51 | 173 | 2.0 | 6.0 | 0.09 | 0.16 | 0.16 | 65 | 1009.4 |
| 20260507165003 | 51 | 189 | 2.0 | 9.0 | 0.05 | 0.12 | 0.12 | 73 | 1009.5 |
| 20260507164003 | 51 | 250 | 11.0 | 19.0 | 0.02 | 0.09 | 0.09 | 76 | 1010.1 |
| 20260507163003 | 51 | 259 | 5.0 | 10.0 | 0.00 | 0.07 | 0.07 | 74 | 1009.6 |
| 20260507162003 | 51 | 267 | 8.0 | 14.0 | 0.00 | 0.07 | 0.07 | 72 | 1009.6 |
| 20260507161003 | 53 | 277 | 10.0 | 17.0 | 0.00 | 0.07 | 0.07 | 69 | 1009.6 |
| 20260507160003 | 54 | 288 | 7.0 | 15.0 | 0.00 | 0.07 | 0.07 | 63 | 1009.7 |
| 20260507155003 | 55 | 307 | 7.0 | 13.0 | 0.00 | 0.07 | 0.07 | 62 | 1009.6 |
| 20260507154003 | 55 | 318 | 7.0 | 13.0 | 0.00 | 0.07 | 0.07 | 60 | 1009.2 |
| 20260507153003 | 55 | 354 | 5.0 | 8.0 | 0.00 | 0.07 | 0.07 | 64 | 1009.1 |
| 20260507152003 | 55 | 340 | 7.0 | 10.0 | 0.00 | 0.07 | 0.07 | 63 | 1009.3 |
| 20260507151003 | 55 | 343 | 6.0 | 10.0 | 0.00 | 0.07 | 0.07 | 65 | 1009.3 |
| 20260507150003 | 55 | 5 | 5.0 | 11.0 | 0.00 | 0.07 | 0.07 | 64 | 1009.4 |
| 20260507145003 | 55 | 348 | 6.0 | 13.0 | 0.00 | 0.07 | 0.07 | 65 | 1009.2 |
| 20260507144003 | 54 | 6 | 8.0 | 14.0 | 0.00 | 0.07 | 0.07 | 63 | 1009.2 |
| 20260507143003 | 54 | 348 | 7.0 | 16.0 | 0.00 | 0.07 | 0.07 | 69 | 1009.1 |
| 20260507142003 | 56 | 3 | 5.0 | 10.0 | 0.00 | 0.07 | 0.07 | 69 | 1009.2 |
| 20260507141003 | 56 | 68 | 3.0 | 8.0 | 0.00 | 0.07 | 0.07 | 68 | 1009.4 |
| 20260507140003 | 56 | 89 | 4.0 | 8.0 | 0.00 | 0.07 | 0.07 | 73 | 1009.5 |
| 20260507135003 | 55 | 83 | 5.0 | 8.0 | 0.01 | 0.07 | 0.07 | 72 | 1009.5 |
| 20260507134003 | 53 | 94 | 3.0 | 4.0 | 0.01 | 0.07 | 0.07 | 79 | 1009.7 |
| 20260507133003 | 53 | 102 | 4.0 | 7.0 | 0.04 | 0.07 | 0.07 | 75 | 1009.7 |
| 20260507132003 | 53 | 127 | 5.0 | 10.0 | 0.07 | 0.07 | 0.07 | 75 | 1009.7 |
| 20260507131003 | 52 | 134 | 6.0 | 16.0 | 0.07 | 0.07 | 0.07 | 79 | 1009.6 |
| 20260507130003 | 52 | 128 | 12.0 | 19.0 | 0.07 | 0.07 | 0.07 | 78 | 1009.2 |
| 20260507125003 | 51 | 129 | 9.0 | 15.0 | 0.06 | 0.06 | 0.06 | 84 | 1009.3 |
| 20260507124003 | 51 | 134 | 11.0 | 19.0 | 0.06 | 0.06 | 0.06 | 82 | 1009.6 |
| 20260507123003 | 51 | 162 | 15.0 | 29.0 | 0.03 | 0.03 | 0.03 | 83 | 1009.6 |
| 20260507122004 | 54 | 139 | 13.0 | 23.0 | 0.00 | 0.00 | 0.00 | 67 | 1009.4 |
| 20260507121003 | 54 | 147 | 13.0 | 19.0 | 0.00 | 0.00 | 0.00 | 71 | 1009.0 |
| 20260507120004 | 56 | 160 | 14.0 | 23.0 | 0.00 | 0.00 | 0.00 | 70 | 1009.0 |
| 20260507115003 | 58 | 140 | 13.0 | 22.0 | 0.00 | 0.00 | 0.00 | 63 | 1008.5 |
| 20260507114003 | 59 | 152 | 10.0 | 17.0 | 0.00 | 0.00 | 0.00 | 61 | 1008.6 |
| 20260507113003 | 59 | 138 | 11.0 | 19.0 | 0.00 | 0.00 | 0.00 | 61 | 1008.9 |
| 20260507112003 | 60 | 144 | 9.0 | 16.0 | 0.00 | 0.00 | 0.00 | 58 | 1008.9 |
| 20260507111003 | 60 | 129 | 11.0 | 18.0 | 0.00 | 0.00 | 0.00 | 58 | 1009.2 |
| 20260507110003 | 62 | 137 | 6.0 | 13.0 | 0.00 | 0.00 | 0.00 | 58 | 1009.2 |
| 20260507105003 | 60 | 150 | 8.0 | 16.0 | 0.00 | 0.00 | 0.00 | 60 | 1009.4 |
| 20260507104003 | 61 | 157 | 8.0 | 15.0 | 0.00 | 0.00 | 0.00 | 57 | 1009.3 |
| 20260507103003 | 59 | 143 | 9.0 | 17.0 | 0.00 | 0.00 | 0.00 | 63 | 1009.5 |
| 20260507102003 | 58 | 132 | 10.0 | 17.0 | 0.00 | 0.00 | 0.00 | 63 | 1009.4 |
| 20260507101003 | 58 | 135 | 9.0 | 17.0 | 0.00 | 0.00 | 0.00 | 64 | 1009.6 |
| 20260507100003 | 58 | 154 | 10.0 | 17.0 | 0.00 | 0.00 | 0.00 | 62 | 1009.8 |
| 20260507095003 | 59 | 132 | 10.0 | 15.0 | 0.00 | 0.00 | 0.00 | 62 | 1010.1 |
| 20260507094003 | 59 | 126 | 9.0 | 16.0 | 0.00 | 0.00 | 0.00 | 62 | 1010.0 |
| 20260507093003 | 58 | 113 | 10.0 | 19.0 | 0.00 | 0.00 | 0.00 | 66 | 1009.8 |
| 20260507092003 | 57 | 140 | 8.0 | 16.0 | 0.00 | 0.00 | 0.00 | 65 | 1009.8 |
| 20260507091003 | 56 | 140 | 8.0 | 16.0 | 0.00 | 0.00 | 0.00 | 71 | 1009.7 |
| 20260507090004 | 57 | 118 | 7.0 | 16.0 | 0.00 | 0.00 | 0.00 | 67 | 1009.8 |
| 20260507085003 | 56 | 131 | 5.0 | 11.0 | 0.00 | 0.00 | 0.00 | 67 | 1010.0 |
| 20260507084003 | 56 | 147 | 6.0 | 13.0 | 0.00 | 0.00 | 0.00 | 67 | 1009.6 |
| 20260507083003 | 55 | 139 | 7.0 | 11.0 | 0.00 | 0.00 | 0.00 | 68 | 1010.0 |
| 20260507082003 | 55 | 144 | 6.0 | 14.0 | 0.00 | 0.00 | 0.00 | 68 | 1009.7 |
| 20260507081003 | 55 | 153 | 6.0 | 11.0 | 0.00 | 0.00 | 0.00 | 68 | 1009.8 |
| 20260507080003 | 55 | 122 | 6.0 | 13.0 | 0.00 | 0.00 | 0.00 | 68 | 1009.6 |
| 20260507075003 | 55 | 137 | 3.0 | 8.0 | 0.00 | 0.00 | 0.00 | 69 | 1009.7 |
| 20260507074003 | 53 | 112 | 3.0 | 7.0 | 0.00 | 0.00 | 0.00 | 72 | 1009.7 |
| 20260507073003 | 54 | 114 | 2.0 | 6.0 | 0.00 | 0.00 | 0.00 | 70 | 1009.8 |
| 20260507072003 | 53 | 86 | 1.0 | 6.0 | 0.00 | 0.00 | 0.00 | 69 | 1009.5 |
| 20260507071003 | 52 | 74 | 1.0 | 6.0 | 0.00 | 0.00 | 0.00 | 73 | 1009.8 |
| 20260507070005 | 51 | 46 | 2.0 | 6.0 | 0.00 | 0.00 | 0.00 | 75 | 1009.5 |
| 20260507065003 | 51 | 53 | 2.0 | 6.0 | 0.00 | 0.00 | 0.00 | 75 | 1009.4 |
| 20260507064003 | 51 | 48 | 2.0 | 6.0 | 0.00 | 0.00 | 0.00 | 77 | 1009.2 |
| 20260507063003 | 50 | 32 | 3.0 | 6.0 | 0.00 | 0.00 | 0.00 | 78 | 1009.4 |
| 20260507062003 | 50 | 31 | 2.0 | 4.0 | 0.00 | 0.00 | 0.00 | 77 | 1009.2 |
| 20260507061003 | 49 | 41 | 2.0 | 6.0 | 0.00 | 0.00 | 0.00 | 78 | 1009.2 |
| 20260507060003 | 49 | 37 | 3.0 | 6.0 | 0.00 | 0.00 | 0.00 | 79 | 1009.0 |
| 20260507055003 | 49 | 23 | 3.0 | 6.0 | 0.00 | 0.00 | 0.00 | 78 | 1008.9 |
| 20260507054003 | 49 | 39 | 4.0 | 7.0 | 0.00 | 0.00 | 0.00 | 79 | 1009.0 |
| 20260507053003 | 49 | 35 | 3.0 | 7.0 | 0.00 | 0.00 | 0.00 | 80 | 1008.9 |
| 20260507052003 | 49 | 38 | 4.0 | 8.0 | 0.00 | 0.00 | 0.00 | 80 | 1008.8 |
| 20260507051003 | 49 | 37 | 5.0 | 8.0 | 0.00 | 0.00 | 0.00 | 80 | 1008.8 |
| 20260507050003 | 49 | 38 | 4.0 | 7.0 | 0.00 | 0.00 | 0.00 | 80 | 1008.6 |
| 20260507045003 | 49 | 43 | 3.0 | 6.0 | 0.00 | 0.00 | 0.00 | 79 | 1008.8 |
| 20260507044003 | 50 | 55 | 2.0 | 7.0 | 0.00 | 0.00 | 0.00 | 79 | 1008.8 |
| 20260507043003 | 50 | 69 | 2.0 | 7.0 | 0.00 | 0.00 | 0.00 | 78 | 1008.5 |
| 20260507042003 | 50 | 56 | 4.0 | 7.0 | 0.00 | 0.00 | 0.00 | 78 | 1009.0 |
| 20260507041003 | 50 | 45 | 3.0 | 7.0 | 0.00 | 0.00 | 0.00 | 79 | 1008.9 |
| 20260507040003 | 50 | 52 | 2.0 | 6.0 | 0.00 | 0.00 | 0.00 | 79 | 1008.9 |
| 20260507035003 | 50 | 72 | 2.0 | 6.0 | 0.00 | 0.00 | 0.00 | 79 | 1008.9 |
| 20260507034003 | 50 | 94 | 4.0 | 8.0 | 0.00 | 0.00 | 0.00 | 79 | 1008.8 |
| 20260507033003 | 50 | 94 | 6.0 | 13.0 | 0.00 | 0.00 | 0.00 | 80 | 1008.5 |
| 20260507032003 | 50 | 90 | 8.0 | 14.0 | 0.00 | 0.00 | 0.00 | 79 | 1008.3 |
| 20260507031003 | 50 | 90 | 8.0 | 14.0 | 0.00 | 0.00 | 0.00 | 80 | 1008.3 |
| 20260507030003 | 49 | 100 | 9.0 | 15.0 | 0.00 | 0.00 | 0.00 | 80 | 1008.4 |
| 20260507025003 | 50 | 102 | 10.0 | 17.0 | 0.00 | 0.00 | 0.00 | 79 | 1008.5 |